Theta_e
316 318 322 330 332 330 335 335 330 332 326 327 326 324 323 324 323 323 332 333 334 334 335 328 323 320 320 321 321 319 318 318 319 317 315 315 318 325 319 316 317 323 323 322 319 317 311 309 308
323 324 328 334 334 338 336 334 335 329 326 326 326 325 325 327 330 333 331 330 330 328 330 329 327 324 324 325 324 322 321 320 318 317 316 321 326 320 315 315 316 320 325 325 323 322 319 312 311
325 332 331 333 333 338 337 334 330 331 332 326 324 325 326 327 328 328 328 328 327 325 325 326 327 327 328 328 326 324 323 322 321 318 324 327 326 323 321 321 319 326 327 330 328 329 326 321 316
324 332 331 334 336 334 335 334 333 329 327 325 325 326 326 326 326 326 327 327 326 324 324 325 327 328 328 326 323 322 321 321 319 324 325 325 326 325 324 324 323 321 321 328 329 328 329 329 324
332 336 334 333 334 331 330 331 328 326 324 325 325 326 326 326 326 326 326 326 321 322 322 324 326 327 326 322 320 318 316 314 321 321 322 323 325 324 325 322 323 324 322 326 329 329 327 328 328
333 329 328 329 328 328 326 330 327 327 328 324 325 326 326 326 326 326 327 322 322 321 321 323 325 325 322 320 319 317 317 315 315 318 319 321 320 320 320 321 321 321 325 325 326 326 325 325 326
330 326 329 327 330 328 327 329 327 326 325 326 326 324 326 326 327 326 326 322 322 324 323 323 325 323 319 321 320 320 319 317 318 323 323 323 323 321 321 321 321 321 325 325 326 324 324 324 324
332 325 329 326 327 327 327 327 328 327 325 325 326 326 327 326 327 327 325 324 324 324 323 323 323 320 321 321 321 321 319 318 320 324 324 323 321 320 319 320 320 320 325 330 329 327 323 323 324
330 326 328 327 326 326 326 325 328 327 327 325 325 325 326 327 327 326 326 326 325 323 323 323 321 321 322 322 321 321 319 319 323 325 324 322 322 318 318 319 319 320 322 324 322 323 324 324 324
327 326 326 325 325 325 326 327 328 326 326 324 326 326 326 325 326 325 325 324 324 323 322 322 322 322 322 322 321 320 319 320 323 324 324 324 324 321 321 318 319 322 323 324 326 326 324 324 323
327 328 327 326 327 329 327 327 329 326 326 326 325 326 325 326 326 325 326 325 322 321 322 322 323 322 322 321 321 318 320 323 323 324 324 326 324 322 320 319 321 321 322 322 323 324 323 324 326
327 327 328 327 327 329 327 329 327 327 327 327 327 325 325 326 327 326 326 325 321 322 323 323 323 322 322 322 317 319 325 325 325 324 324 323 322 323 322 319 321 324 323 323 322 322 324 323 324
325 326 327 328 329 329 328 327 326 327 328 328 328 326 325 326 326 326 326 325 321 323 323 323 323 322 322 318 316 322 324 326 325 325 325 324 323 323 324 322 319 321 322 322 322 322 323 323 324
326 326 327 327 328 329 327 327 328 328 328 327 327 325 325 326 326 325 326 325 323 324 324 323 323 322 321 317 317 323 327 327 327 327 326 325 325 324 323 325 322 320 321 320 320 322 323 323 324
319 319 320 323 325 325 327 326 325 325 325 326 326 326 326 326 325 325 325 323 323 324 324 323 323 322 320 317 317 323 325 328 327 329 328 326 325 325 324 324 323 321 322 321 320 322 323 324 324
317 317 320 321 322 324 323 326 324 324 325 325 326 326 326 326 325 324 325 324 324 324 323 323 322 322 318 316 320 324 326 325 326 327 328 327 326 325 323 322 322 320 322 322 320 321 323 323 324
315 318 318 320 320 321 320 323 324 325 325 324 325 326 326 326 325 324 324 324 324 323 323 322 323 321 317 315 321 324 325 328 327 327 326 327 325 324 322 321 320 321 322 322 320 321 323 323 324
315 316 318 320 320 320 321 322 323 324 325 324 324 325 324 325 325 324 324 323 323 323 323 323 323 318 317 317 321 324 325 327 327 327 327 327 326 324 323 323 320 322 322 321 321 321 322 323 324
316 316 317 318 320 322 321 322 323 323 322 323 323 324 325 325 326 325 324 323 323 323 323 323 321 317 316 320 321 324 325 327 327 327 327 327 327 327 325 322 322 322 322 321 322 321 321 322 324
317 318 319 320 321 321 320 321 321 321 321 322 324 324 324 323 325 325 324 323 323 323 324 323 319 319 319 320 320 324 325 326 327 327 327 327 327 327 325 324 323 322 321 322 321 320 321 322 325
317 317 318 320 321 321 321 322 322 322 322 324 325 325 324 325 325 325 323 323 323 324 324 322 320 320 321 320 323 323 325 328 328 327 327 326 326 324 325 324 323 322 321 322 321 322 322 323 324
318 319 319 320 320 323 321 323 321 321 322 321 323 324 326 326 325 325 324 323 324 325 324 321 321 322 322 323 323 326 327 326 326 327 326 326 323 323 323 323 322 321 321 322 322 322 322 324 324
318 319 320 320 320 321 322 322 321 320 322 321 320 322 324 325 325 325 324 324 325 325 324 322 323 324 322 324 326 328 328 326 324 324 325 326 323 323 323 322 321 322 322 321 323 324 324 323 325
317 318 318 318 319 321 322 321 323 321 321 322 322 323 324 324 325 325 324 325 325 325 324 323 326 324 323 325 329 329 328 326 324 324 325 326 325 323 322 322 323 323 324 325 325 324 324 325 325
315 316 318 318 321 323 320 321 323 322 321 321 321 322 324 324 324 325 325 325 325 325 324 326 326 321 325 329 329 328 329 326 324 323 325 326 325 324 322 323 324 324 325 325 325 325 326 325 325
315 317 320 323 322 322 321 324 323 321 321 323 324 322 324 323 324 325 325 325 326 325 324 325 323 324 325 328 328 327 329 326 326 324 325 325 325 325 321 321 324 324 324 324 324 324 326 323 327
314 317 318 318 320 321 321 321 321 322 322 323 322 322 323 324 324 324 325 325 326 325 324 323 321 326 325 327 327 328 328 329 328 325 324 324 324 324 322 321 324 326 323 323 324 325 326 324 326
313 313 314 312 318 321 322 322 323 323 325 324 323 322 323 324 325 325 325 326 327 325 323 322 323 325 326 326 327 328 328 329 325 324 323 323 322 322 321 319 324 325 323 322 324 325 325 325 325
312 314 314 316 317 320 321 322 319 321 322 324 322 323 324 324 325 325 326 327 327 324 323 321 324 326 325 326 327 328 329 329 325 324 324 325 323 323 321 320 319 321 322 323 324 324 324 328 329
315 314 314 316 318 318 320 323 321 318 318 322 322 324 325 325 326 326 326 327 326 324 322 321 324 326 324 325 327 328 328 329 326 326 324 326 324 324 323 324 321 321 323 324 324 326 328 328 329
Wind_Speed
7 8 7 1 3 4 4 6 3 8 3 7 2 4 5 2 5 4 14 16 17 17 21 20 16 12 12 10 8 8 10 11 12 12 12 11 11 10 12 13 14 13 13 11 10 12 15 15 16
7 7 2 2 3 0 5 5 7 8 8 6 4 8 2 2 7 5 18 17 14 11 14 15 15 13 11 10 10 10 12 13 14 14 14 13 12 13 14 14 15 15 15 15 14 12 14 15 15
9 7 1 3 3 5 5 4 6 12 23 8 6 4 2 3 8 4 10 14 13 11 10 11 12 12 10 10 11 12 13 15 17 17 16 15 16 16 16 15 15 16 17 17 17 16 13 14 16
9 3 2 3 8 7 5 7 12 11 11 7 4 2 4 8 4 7 10 12 13 13 10 11 11 11 12 11 11 12 15 17 18 16 19 19 19 20 18 18 19 19 19 18 19 18 19 16 16
9 2 1 3 6 6 6 17 19 7 6 5 9 5 5 15 11 10 14 16 13 13 12 12 12 11 8 9 10 11 13 15 16 17 19 20 20 22 21 21 21 21 21 20 19 20 20 21 17
4 3 1 4 5 5 6 24 18 10 15 4 4 7 6 12 19 16 20 16 14 10 12 13 14 11 9 8 10 11 13 14 14 15 16 17 20 23 25 25 26 25 22 22 23 22 22 22 21
6 4 4 5 9 9 6 7 2 4 8 8 8 6 5 16 21 20 21 17 15 15 14 14 13 11 11 11 12 13 14 16 14 14 14 16 20 21 24 26 27 27 24 25 25 25 25 25 22
7 4 3 5 3 9 4 5 11 9 16 7 6 4 6 16 23 25 22 19 17 17 15 14 14 13 13 13 14 15 16 17 14 14 15 18 16 16 14 14 17 20 22 24 24 25 26 27 25
9 3 6 7 7 8 10 3 20 17 13 14 12 16 21 14 28 26 25 23 21 19 16 16 17 16 15 13 14 16 18 17 16 15 15 13 15 14 11 13 14 15 14 16 19 20 22 24 26
8 5 10 11 7 6 14 14 26 14 23 16 26 25 19 17 35 34 32 28 25 21 20 20 20 18 15 14 15 16 16 15 16 15 14 13 16 12 13 12 12 12 14 17 15 18 19 21 23
9 13 23 19 27 16 13 22 37 17 17 26 26 26 12 18 37 37 34 28 21 19 23 24 22 19 17 13 14 14 11 12 13 15 14 14 16 13 11 10 10 11 13 16 16 15 19 21 21
4 16 28 35 32 19 13 28 23 31 27 38 39 30 13 23 37 38 35 30 26 25 27 26 25 22 17 13 13 8 7 8 9 10 13 15 13 13 11 10 11 12 12 12 12 13 15 17 19
8 20 29 27 26 29 31 26 26 32 43 44 42 35 21 25 34 37 34 30 27 29 31 29 27 23 16 13 9 7 8 7 7 9 11 14 15 14 13 12 12 13 13 13 12 12 15 17 20
10 14 25 25 30 32 25 28 29 39 37 38 41 31 20 25 34 38 38 35 33 32 34 32 29 21 14 10 7 6 5 6 8 10 12 13 14 15 15 15 13 13 12 13 13 12 14 17 18
15 12 16 22 30 22 22 20 22 37 35 34 39 38 32 28 35 41 39 39 36 34 33 33 27 19 12 8 7 5 6 7 12 12 13 14 14 14 14 15 15 12 13 13 12 13 14 17 18
4 2 7 6 15 21 9 26 25 39 33 35 37 37 35 31 37 42 42 41 36 35 32 30 23 15 11 8 6 4 6 10 12 13 14 14 14 13 14 15 14 13 14 13 13 15 15 17 18
3 12 13 17 11 6 8 13 21 22 19 24 33 40 38 35 41 44 44 41 38 34 31 26 19 13 9 7 6 5 7 11 12 12 12 12 13 12 14 13 12 13 13 13 13 16 16 15 16
11 9 15 19 3 11 16 14 22 31 19 23 32 39 37 39 43 40 43 39 38 33 28 22 15 11 9 9 6 5 9 12 15 14 11 11 11 11 13 11 12 12 12 12 14 16 16 15 13
13 12 18 18 5 7 9 10 17 24 18 22 28 34 37 39 36 24 36 36 37 33 27 20 14 12 10 8 7 6 10 13 14 14 10 10 12 11 11 10 11 11 10 10 11 17 18 16 14
11 9 18 15 12 5 12 15 16 17 15 25 34 31 34 28 24 19 25 34 39 34 24 17 14 11 9 7 6 7 11 12 15 13 9 10 11 12 10 10 9 8 7 8 11 15 19 17 16
17 19 18 20 6 7 11 12 16 17 13 25 23 24 20 22 23 24 29 38 37 30 22 16 14 11 8 5 4 7 10 13 15 11 7 9 10 7 7 9 8 7 6 8 11 14 17 18 16
19 19 19 17 8 9 4 5 5 8 10 7 13 12 18 21 23 24 35 39 35 25 18 16 13 9 6 4 4 6 10 14 10 7 5 6 4 3 6 7 8 7 6 9 11 13 15 16 15
18 12 12 8 7 5 16 4 5 4 10 10 11 15 15 14 20 28 36 38 29 21 18 16 12 7 5 6 4 6 10 11 8 6 4 3 1 5 6 8 8 7 7 9 10 13 14 13 13
8 3 3 6 2 8 21 5 8 6 8 6 6 12 7 16 22 29 34 31 24 19 17 16 12 6 5 6 3 7 10 9 7 6 5 5 4 7 9 10 8 7 7 7 8 12 13 13 13
10 6 2 3 4 6 8 6 14 10 10 12 11 5 12 18 23 29 34 31 25 21 19 16 12 7 5 7 4 6 9 7 7 8 7 3 4 9 12 11 8 7 8 7 6 7 10 8 13
22 15 6 6 4 4 6 7 10 9 13 23 21 11 18 20 22 28 33 30 24 21 19 15 10 8 7 5 3 4 8 5 7 9 7 1 5 10 13 11 9 8 7 5 4 7 11 9 15
11 15 12 3 1 1 4 7 8 3 1 2 7 18 22 23 27 30 31 28 24 21 20 15 11 9 10 6 3 1 3 6 7 9 6 3 6 10 12 11 11 6 7 4 4 6 7 8 13
9 9 9 4 4 3 5 4 6 3 2 3 6 10 19 23 27 30 31 28 22 19 17 14 10 9 10 6 4 1 1 6 8 7 5 6 7 10 10 11 11 7 7 5 4 4 5 7 9
6 15 3 8 5 6 1 6 8 9 9 11 9 20 26 28 30 32 31 26 20 19 17 14 12 12 9 6 4 3 1 5 5 4 3 5 6 8 10 10 11 10 7 6 4 5 5 6 9
23 19 20 8 8 2 5 12 5 8 10 9 12 23 25 29 30 31 31 27 24 22 18 15 14 14 10 7 7 4 2 4 3 4 3 4 9 9 10 10 11 11 9 8 5 7 7 6 9
Wind_Direction
150 136 143 109 47 60 266 258 265 288 282 234 163 181 198 133 152 215 162 168 173 184 189 195 203 208 218 227 245 276 281 276 266 273 270 263 260 255 271 277 280 281 281 275 258 262 255 250 243
147 143 149 83 104 82 263 243 248 244 262 288 137 130 194 176 169 165 163 178 174 171 194 200 207 209 218 229 251 272 273 274 271 272 274 264 248 258 266 271 272 270 272 277 276 253 258 256 247
164 151 104 112 163 200 225 259 280 298 301 232 160 218 231 222 200 195 194 181 174 180 193 201 209 214 223 237 260 274 276 276 270 277 269 265 263 272 276 275 270 258 260 264 267 272 260 256 255
168 179 117 124 236 257 242 278 276 283 290 243 187 149 233 177 204 206 189 182 177 184 202 200 208 217 224 242 266 279 283 276 277 272 265 269 267 278 281 272 263 263 262 257 258 259 265 263 257
160 153 126 243 248 256 254 267 288 249 236 214 183 204 233 209 209 204 195 184 189 196 206 206 209 218 234 263 274 283 286 287 273 266 267 269 270 279 276 273 267 264 261 259 257 256 254 256 256
146 124 45 252 227 249 274 279 275 257 298 232 184 162 214 215 211 205 194 195 193 216 211 210 213 218 237 266 288 296 296 304 279 272 270 272 274 274 271 267 262 263 259 257 258 257 253 253 252
146 105 230 253 281 297 217 260 232 325 304 275 235 153 246 225 213 208 197 198 202 213 220 214 218 224 232 263 278 290 297 305 292 282 278 281 280 277 273 265 261 260 259 257 257 252 251 250 249
189 116 258 239 220 267 211 313 313 334 314 331 181 223 244 249 199 195 198 203 211 215 222 220 218 222 242 264 283 290 302 300 291 285 286 292 288 288 278 271 264 263 258 258 257 252 246 248 245
189 111 248 237 184 248 276 360 295 312 295 305 269 253 282 265 196 197 198 200 210 217 221 224 222 226 243 262 278 285 296 292 283 281 290 291 308 306 289 276 271 266 261 266 266 251 244 243 240
183 175 229 226 208 245 289 304 291 310 302 288 287 286 293 240 200 202 205 208 214 221 224 226 227 231 246 261 271 285 288 287 283 291 294 296 307 287 290 281 275 264 252 256 265 247 239 238 234
192 222 233 265 252 252 273 288 285 284 286 285 276 293 277 224 201 208 214 219 228 230 226 231 227 233 241 254 270 279 285 289 288 288 286 290 294 278 293 286 288 273 265 263 259 258 239 235 226
246 231 240 247 263 272 259 273 278 280 275 286 288 289 257 222 207 213 216 219 226 227 224 225 224 228 236 251 276 272 303 299 292 288 282 284 280 281 283 294 278 273 265 269 260 254 237 230 229
221 247 248 259 270 274 275 267 265 280 283 288 287 278 255 225 220 222 224 222 229 228 225 222 219 225 233 262 266 267 289 301 302 306 292 279 282 279 284 278 284 277 268 267 266 252 234 226 228
233 259 262 260 262 263 265 274 278 274 278 280 283 268 255 239 232 227 220 223 227 228 224 221 218 218 232 254 242 267 304 293 304 306 302 290 284 279 276 264 279 282 274 266 261 249 233 223 222
271 271 278 262 262 260 273 279 268 275 279 276 279 271 272 263 235 230 228 226 228 229 223 214 210 214 231 245 243 265 297 312 313 304 295 293 288 282 275 264 268 278 270 263 254 239 225 213 216
358 287 265 236 241 256 218 265 268 271 272 271 274 277 279 264 238 234 230 229 226 222 208 204 207 215 226 237 238 281 320 324 316 300 289 289 290 285 279 270 260 265 258 260 257 232 225 217 219
260 258 267 279 222 249 180 277 275 282 269 268 278 281 276 253 237 231 230 229 225 214 205 201 207 217 227 231 244 292 320 330 324 313 295 288 286 283 271 267 255 255 259 257 248 227 223 223 220
219 238 247 251 200 221 252 259 277 282 293 279 278 279 265 252 239 235 232 227 219 207 204 206 210 218 224 226 239 290 312 319 321 314 292 278 287 274 267 263 238 248 259 256 240 224 217 218 213
228 234 247 258 213 233 240 252 274 282 290 281 282 274 261 258 244 241 233 226 205 201 200 201 212 212 219 219 242 287 316 319 321 317 287 278 280 274 272 245 238 252 262 252 237 214 207 210 206
232 246 256 281 265 246 276 269 270 283 278 275 271 266 259 248 243 236 221 204 198 197 192 199 203 206 202 219 251 296 315 321 321 316 292 283 281 276 259 232 233 248 244 229 197 188 197 200 196
224 230 247 251 299 226 278 282 278 279 290 283 263 261 254 253 258 226 202 194 192 192 189 201 199 198 198 231 255 302 319 320 320 322 293 291 295 284 237 210 219 221 212 188 184 187 188 192 200
231 221 241 256 276 271 116 290 294 279 289 285 262 229 245 251 239 211 193 188 189 184 188 193 193 188 202 220 260 308 329 335 333 341 324 307 310 209 181 202 194 182 182 181 178 181 183 195 198
237 225 244 255 258 298 271 265 255 267 287 266 269 252 252 242 212 197 191 187 180 180 188 187 185 182 219 224 266 324 337 342 349 353 329 321 233 191 182 169 178 176 180 181 185 188 194 195 197
233 229 287 265 234 254 264 163 276 230 226 264 261 292 254 189 188 191 185 176 173 179 185 185 182 192 208 204 241 327 331 336 350 349 335 309 232 196 172 167 167 162 155 156 170 179 189 201 203
194 112 271 307 198 222 234 180 239 257 245 247 250 198 175 181 184 187 178 175 177 182 182 182 186 208 201 192 236 325 337 334 1 357 342 314 189 186 176 169 161 156 144 147 159 184 180 191 207
210 187 176 201 183 213 181 236 252 242 258 243 243 211 171 179 188 185 179 175 181 182 182 181 192 182 194 202 216 334 339 342 350 352 5 15 182 178 176 171 170 161 161 153 152 167 173 193 187
199 206 181 358 278 72 208 285 323 268 305 206 157 169 177 186 190 184 177 182 182 184 183 184 180 171 188 201 242 312 339 8 355 2 21 100 152 168 168 173 172 177 179 169 159 166 184 181 188
159 153 188 192 228 219 263 254 230 256 199 191 159 166 176 187 185 181 180 182 183 184 179 185 180 173 186 183 155 117 9 3 14 19 66 111 127 153 165 170 173 170 181 175 154 167 166 173 182
164 231 156 160 186 177 179 257 211 213 186 190 213 182 183 187 185 181 182 182 180 179 182 187 183 186 189 182 176 208 307 356 22 25 111 79 143 156 166 175 185 185 179 166 165 152 148 149 167
200 205 212 200 211 208 164 257 227 209 191 170 197 188 189 192 182 182 181 180 182 181 182 189 185 193 184 188 185 185 260 339 30 30 135 97 130 148 162 163 168 171 162 143 152 146 136 137 150